Flag for USA

Past Weather in Hermiston, Oregon, USA — Yesterday and Last 2 Weeks

Now
70 °F

Sunny.


Feels Like: 77 °F
Forecast: 90 / 66 °F
Wind: 8 mph from Southwest

Location: Hermiston Municipal Airport
Current Time: Aug 11, 2020 at 8:24:28 am
Latest Report: Aug 11, 2020 at 6:53 am
Visibility: 10 mi
Pressure29.81 "Hg
Humidity: 41%
Dew Point: 45 °F
Location of HermistonLocation

Past Weather in Hermiston — Graph

°F

Hermiston Temperature Yesterday

Maximum temperature yesterday: 96 °F (at 3:53 pm)
Minimum temperature yesterday: 54 °F (at 2:53 am)
Average temperature yesterday: 77 °F

High & Low Weather Summary for the Past Weeks

 TemperatureHumidityPressure
High109 °F (Jul 30, 3:53 pm)72% (Aug 4, 4:53 am)30.18 "Hg (Aug 4, 4:53 am)
Low53 °F (Aug 7, 4:53 am)10% (Jul 27, 3:53 pm)29.63 "Hg (Aug 5, 7:53 pm)
Average80 °F36%29.89 "Hg
* Reported Jul 27 6:53 am — Aug 11 6:53 am, Hermiston. Weather by CustomWeather, © 2020

Note: Actual official high and low records may vary slightly from our data, if they occured in-between our weather recording intervals... More about our weather records

Hermiston Weather History for the Previous 24 Hours

Scroll right to see more
 ConditionsComfort  
Time TempWeatherWind HumidityBarometerVisibility
6:53 am
Tue, Aug 11
70 °FSunny.8 mph41%29.81 "Hg10 mi
5:53 am67 °FSunny.7 mph49%29.80 "Hg10 mi
4:53 am70 °FClear.10 mph46%29.80 "Hg10 mi
3:53 am69 °FClear.6 mph47%29.79 "Hg10 mi
2:53 am71 °FClear.3 mph47%29.79 "Hg10 mi
1:53 am76 °FClear.10 mph40%29.79 "Hg10 mi
12:53 am78 °FClear.15 mph40%29.79 "Hg10 mi
11:53 pm
Mon, Aug 10
76 °FClear.12 mph42%29.78 "Hg10 mi
10:53 pm81 °FClear.14 mph35%29.76 "Hg10 mi
9:53 pm79 °FClear.8 mph35%29.76 "Hg10 mi
8:53 pm82 °FClear.7 mph33%29.75 "Hg10 mi
7:53 pm87 °FSunny.6 mph26%29.75 "Hg10 mi
6:53 pm95 °FSunny.No wind16%29.76 "Hg10 mi
5:53 pm96 °FSunny.7 mph15%29.79 "Hg10 mi
4:53 pm96 °FSunny.7 mph15%29.82 "Hg10 mi
3:53 pm96 °FSunny.9 mph16%29.85 "Hg10 mi
2:53 pm95 °FSunny.9 mph18%29.88 "Hg10 mi
1:53 pm91 °FSunny.6 mph19%29.91 "Hg10 mi
12:53 pm90 °FSunny.8 mph23%29.94 "Hg10 mi
11:53 am85 °FSunny.6 mph28%29.98 "Hg10 mi
10:53 am82 °FSunny.6 mph31%30.00 "Hg9 mi
9:53 am77 °FSunny.6 mph33%30.02 "Hg10 mi
8:53 am73 °FSunny.5 mph34%30.04 "Hg10 mi
Weather by CustomWeather, © 2020

See weather overview